Theta_e
317 317 317 317 317 317 317 318 318 318 318 319 319 320 320 320 321 321 321 322 322 322 322 322 322 322 322 322 322 323 321 319 319 319 316 320 330 343 350 354 351 356 366 347 351 342 339 339 337 339 339 339 338 333 335 333 333 329 322 315 314 314 314 318 317 319 322 320 317 319 324 324 323 328 330 332 329 332 332 332 336 339 341 343 345 347 348 349
317 317 316 316 316 316 318 318 318 318 319 319 319 319 319 320 320 321 321 321 321 321 321 321 321 322 322 321 323 322 320 319 318 317 316 326 342 346 351 358 359 359 360 340 343 336 333 333 335 336 333 331 339 330 334 328 332 324 321 318 312 316 317 322 321 322 321 321 323 323 325 324 323 326 328 324 324 328 327 330 333 335 339 342 344 345 346 347
316 316 316 316 316 317 317 318 318 318 318 318 318 319 320 320 320 320 320 320 320 320 320 321 321 322 322 322 322 322 320 319 321 318 324 343 344 345 352 357 359 366 342 336 334 335 332 333 336 335 333 330 332 327 329 326 326 326 321 316 317 323 323 323 324 323 325 326 325 322 323 322 322 323 328 324 322 326 322 326 331 334 335 338 341 344 344 344
316 316 316 316 316 317 317 318 318 317 317 318 319 319 319 319 319 319 320 320 320 320 320 320 321 321 321 322 323 321 319 320 314 318 335 360 352 347 353 358 361 363 342 332 329 330 334 334 334 335 332 329 329 329 323 324 320 324 322 316 319 323 318 322 325 325 325 328 324 324 323 320 321 322 324 323 320 323 324 333 333 333 336 338 340 342 343 343
316 315 316 317 316 316 317 317 317 318 318 318 318 319 319 319 319 319 319 319 319 320 320 320 321 322 322 321 321 321 318 306 312 324 326 356 357 354 356 356 361 355 341 330 327 325 328 330 330 331 330 324 327 324 321 321 324 325 322 322 323 321 318 322 324 327 327 330 328 325 320 319 323 322 324 322 318 318 325 334 337 338 338 339 340 341 342 342
315 315 316 316 316 316 317 317 317 317 318 318 318 318 318 318 318 318 319 318 319 319 319 320 321 322 322 321 320 319 310 295 317 324 359 354 353 351 354 355 360 347 337 329 325 323 322 324 327 323 323 321 319 317 319 320 323 314 320 323 324 324 321 324 325 326 329 327 325 324 324 323 320 318 323 321 323 325 334 337 338 340 340 341 342 342 341 342
314 314 315 315 316 316 316 316 316 317 317 317 317 317 317 318 317 317 317 317 318 318 320 321 321 322 321 322 321 320 314 307 314 325 353 361 356 353 358 360 366 338 331 327 326 324 323 322 324 322 320 319 318 317 319 320 321 316 317 322 323 325 323 325 325 325 328 328 326 329 325 321 319 316 323 320 325 330 337 338 340 341 341 342 340 341 341 342
315 315 315 315 315 316 316 316 316 316 317 316 317 318 318 317 317 317 317 318 318 319 320 321 321 322 322 321 318 312 315 313 319 320 356 358 356 357 355 348 339 332 327 325 325 323 324 322 321 324 317 314 317 318 320 318 320 315 315 323 324 325 325 325 324 324 328 328 328 329 323 321 319 320 320 322 328 334 336 339 339 340 340 340 340 339 340 341
315 315 315 315 315 315 316 316 316 316 316 316 317 317 317 317 316 317 317 318 318 319 320 321 321 322 324 320 313 306 304 313 320 324 354 345 341 352 339 333 330 327 326 326 326 325 325 323 323 323 314 314 318 316 319 317 311 316 315 323 323 323 323 324 325 324 328 329 329 325 323 322 324 324 320 324 329 335 338 339 339 339 338 338 338 339 339 340
314 315 315 315 315 315 316 315 316 316 316 316 316 316 316 316 316 317 317 317 318 319 320 321 322 323 321 320 320 306 314 320 323 333 332 338 335 339 336 330 326 324 323 325 327 326 324 323 323 324 321 317 318 315 318 317 314 319 317 316 320 321 323 325 323 323 324 328 327 324 323 319 324 322 313 325 331 335 337 337 338 337 337 337 338 338 339 339
314 314 314 315 315 315 315 316 316 316 316 316 316 316 316 316 316 317 317 317 318 319 320 321 323 322 320 322 312 302 316 317 328 328 334 331 332 330 330 330 325 322 321 321 323 327 327 326 323 322 319 314 316 314 314 315 318 317 317 316 315 317 324 323 322 322 322 323 327 325 323 322 324 322 316 324 331 334 333 335 335 335 336 336 337 338 338 339
314 314 314 314 314 315 315 315 315 315 316 316 315 315 315 316 316 316 316 317 318 319 320 322 324 322 322 319 315 310 321 321 322 320 331 329 330 331 331 328 325 322 320 317 320 324 326 324 322 318 310 318 310 314 312 316 316 315 315 310 312 314 314 322 320 321 321 320 326 325 323 319 321 317 321 325 331 331 332 333 333 333 334 334 336 337 337 337
313 314 314 314 314 315 315 315 315 315 315 314 314 314 315 315 315 315 316 317 318 320 321 322 324 324 321 314 317 324 323 321 320 321 321 326 330 328 327 328 325 324 322 319 319 323 323 321 320 315 318 313 311 307 315 317 315 315 314 310 309 309 309 319 321 321 321 323 325 324 308 313 319 320 322 323 328 330 331 330 330 333 333 334 335 336 336 336
314 314 314 314 314 314 315 315 315 315 314 314 314 314 314 314 314 315 316 317 320 321 323 325 324 323 320 311 318 320 323 323 323 321 320 323 320 322 323 322 321 324 327 323 322 322 323 323 320 317 317 312 309 316 312 312 314 308 311 311 305 302 302 315 319 320 317 323 324 323 308 312 319 320 323 323 327 327 327 328 329 331 332 332 333 335 335 335
314 314 314 314 314 314 314 314 314 314 314 314 313 313 312 312 315 316 319 319 322 324 325 327 323 322 317 316 327 328 346 331 320 319 321 321 320 318 320 321 319 320 319 321 322 324 324 322 319 314 310 315 314 310 307 307 308 308 304 300 304 302 304 312 320 319 314 320 324 320 309 313 319 320 323 324 324 327 325 326 328 329 331 330 332 334 334 334
314 314 314 314 314 314 314 314 313 313 313 313 312 312 313 314 316 318 320 321 323 325 326 324 321 322 317 311 322 344 335 326 323 325 325 324 322 318 320 320 320 319 319 318 321 322 322 322 315 312 312 312 309 304 302 301 303 306 303 302 302 304 305 309 316 319 319 320 322 319 309 316 317 322 323 325 323 326 324 325 326 327 329 329 330 333 332 333
314 314 314 314 314 314 314 313 313 313 312 311 311 312 313 316 319 321 322 323 323 325 325 321 325 323 310 322 331 319 318 325 329 326 325 324 322 320 318 317 317 317 318 318 319 319 318 316 317 315 314 307 307 306 299 298 298 300 304 301 305 304 306 304 314 318 318 319 315 319 313 316 319 323 324 325 324 324 323 323 324 326 327 328 329 331 331 331
314 314 314 314 315 314 314 313 313 312 311 310 310 310 310 316 322 320 322 320 320 325 323 326 321 315 312 322 315 318 320 319 323 323 322 323 322 320 318 315 315 315 315 314 317 314 316 310 313 305 307 307 305 303 299 295 299 299 300 300 303 306 307 308 308 314 317 319 316 315 314 315 320 322 324 326 326 323 322 323 324 325 326 327 328 330 331 331
314 314 314 313 313 314 313 313 312 311 310 310 311 314 319 321 320 318 320 319 319 318 311 313 312 300 299 314 323 325 325 323 323 324 320 321 321 321 319 318 316 313 310 309 310 312 312 309 309 303 301 303 304 304 302 304 306 304 305 303 305 303 304 307 313 317 317 316 315 314 312 314 317 318 321 325 326 323 322 323 324 324 326 326 327 329 330 331
314 314 313 313 313 313 313 313 312 310 309 307 307 308 319 313 314 320 319 320 317 318 318 319 318 314 312 313 315 322 326 327 318 320 322 323 320 317 315 315 313 315 311 305 308 310 312 303 300 300 302 304 307 307 307 308 308 308 307 306 305 306 308 312 313 317 319 315 313 314 315 317 317 318 320 323 325 323 323 322 322 323 325 325 326 328 330 331
314 313 314 313 313 313 312 312 311 310 309 307 306 310 305 304 300 298 303 305 308 310 310 311 313 317 315 319 322 323 319 318 319 318 320 323 319 314 311 313 311 308 309 310 308 312 311 302 301 304 306 306 307 308 308 307 308 307 306 305 304 307 305 311 312 317 319 315 311 315 315 315 317 319 321 323 324 321 323 322 322 323 325 326 325 327 329 331
313 313 313 313 312 312 312 311 310 309 309 308 309 312 313 308 310 311 307 300 306 309 308 307 309 307 313 318 322 323 321 314 315 317 321 320 317 310 310 310 308 305 309 310 308 305 302 301 304 307 309 309 308 308 308 307 306 307 305 305 304 305 309 313 315 319 318 316 310 314 313 314 317 319 321 323 323 323 324 325 324 323 324 325 326 326 329 330
313 312 313 312 312 311 311 310 309 308 307 313 306 305 304 313 314 313 310 304 301 307 306 306 304 305 306 310 312 315 310 308 309 315 317 320 314 312 310 306 306 308 309 309 303 302 298 301 306 309 309 307 307 307 306 307 307 305 304 303 301 305 305 302 313 317 318 315 312 315 312 313 318 320 320 323 324 324 325 327 327 327 325 325 326 326 328 329
313 313 312 312 312 311 311 309 308 310 307 307 306 307 312 313 312 311 305 298 297 303 305 307 307 306 305 305 310 309 307 308 310 311 321 317 311 314 310 308 306 307 305 308 306 303 302 305 309 309 308 307 305 306 304 303 302 306 306 304 303 305 307 307 308 314 316 317 318 314 312 311 315 316 317 320 324 325 326 326 327 328 328 328 329 328 329 330
313 313 313 312 311 311 308 307 308 305 307 308 308 312 313 313 312 312 303 299 300 300 309 307 309 308 309 314 313 306 307 309 311 315 318 317 313 311 309 313 309 304 306 308 308 305 305 309 310 307 306 306 305 303 304 303 300 302 306 306 306 307 307 308 310 311 309 308 314 312 302 303 312 317 317 320 321 321 324 324 324 326 328 328 327 328 329 331
313 313 313 312 312 310 308 303 305 305 306 307 308 312 314 314 313 312 303 295 291 302 308 300 310 305 315 307 310 309 309 304 311 314 317 319 320 313 312 307 309 303 307 307 306 306 307 310 309 306 305 305 304 303 304 305 300 299 302 309 308 308 308 307 308 308 304 301 311 316 303 299 310 314 317 319 320 320 323 323 324 326 327 327 328 329 330 330
313 312 313 311 311 309 302 298 304 307 304 306 311 314 314 315 315 311 299 293 292 306 303 309 308 308 313 310 309 309 295 300 312 314 314 320 314 317 307 305 308 310 311 311 305 302 310 309 308 307 305 304 302 301 305 305 301 299 306 308 309 308 307 307 307 307 308 313 314 314 309 301 302 309 318 320 319 319 320 322 324 326 327 328 328 330 330 331
313 313 311 311 309 309 303 305 305 304 306 310 313 312 312 315 314 308 298 289 291 313 303 305 310 315 312 310 311 304 305 310 303 309 314 316 316 311 308 305 305 306 309 308 297 306 309 307 307 306 305 303 301 304 305 306 303 302 307 308 307 308 308 308 307 305 305 308 303 309 312 303 301 309 316 319 316 317 318 321 323 325 327 328 329 330 331 332
312 312 312 311 309 308 309 306 306 304 310 313 311 310 313 313 308 299 294 287 304 304 317 306 318 311 311 311 307 307 307 310 303 309 314 315 315 312 304 307 308 308 310 308 302 306 309 309 309 309 306 302 305 306 307 306 302 306 308 310 309 309 309 308 306 304 304 303 300 306 310 301 300 308 312 315 315 315 317 321 323 325 328 328 329 329 331 332
312 312 311 310 307 307 306 306 302 305 307 308 309 312 311 307 302 293 290 284 306 298 309 309 308 305 308 304 304 306 304 307 310 311 311 309 310 312 311 313 308 306 306 309 307 308 310 314 315 310 307 308 307 307 308 307 307 308 308 306 306 306 305 305 306 303 302 297 300 309 311 307 298 306 310 311 312 318 319 321 323 324 327 328 329 329 331 331
311 310 310 310 303 305 305 301 305 309 310 310 312 312 306 302 294 290 285 295 306 305 314 307 305 310 305 303 300 305 305 306 307 308 305 309 307 308 308 306 310 304 303 304 305 308 309 310 309 311 314 312 311 307 309 309 308 306 303 302 301 300 302 300 304 304 296 293 302 310 310 310 299 302 311 316 319 320 321 320 322 323 325 328 329 330 330 333
309 308 309 307 307 309 302 300 306 309 309 311 312 307 301 290 294 286 289 308 295 302 304 304 308 307 305 306 304 303 302 305 307 306 303 303 302 302 303 299 302 296 296 298 298 306 304 305 309 310 316 312 308 305 304 307 307 304 301 299 295 292 295 291 295 293 292 293 301 306 307 305 304 308 313 316 318 320 323 324 324 324 325 327 329 330 331 332
308 307 307 308 310 307 308 309 310 310 312 312 309 305 294 289 284 290 292 300 297 308 303 311 308 308 307 304 303 305 306 301 307 306 307 305 303 303 305 304 306 302 294 299 299 300 302 308 308 309 310 314 311 302 300 299 303 302 299 296 293 289 290 286 289 294 295 302 306 305 307 301 304 307 316 316 319 321 324 325 326 326 326 327 329 330 331 332
307 307 306 309 310 310 312 314 313 313 311 312 305 299 293 286 286 302 294 296 298 305 306 304 306 306 307 302 304 307 302 306 306 305 306 303 303 300 302 305 306 304 302 300 297 298 294 296 304 307 303 311 310 308 305 301 299 300 302 300 296 295 293 288 290 289 292 293 301 306 301 296 299 300 317 318 320 322 324 326 326 327 327 328 330 331 331 331
306 307 309 309 311 312 314 314 314 315 311 306 300 294 286 285 292 293 295 298 300 303 301 306 303 303 302 305 308 308 307 302 307 305 304 304 300 302 301 302 306 306 305 297 301 300 299 299 305 311 309 310 309 312 311 307 301 303 304 304 298 296 300 292 296 295 297 297 297 299 299 303 303 313 318 320 321 321 323 323 324 326 327 327 328 330 330 331
306 307 309 306 309 312 314 314 316 315 309 302 295 290 287 291 290 296 296 304 304 301 302 303 304 300 300 301 307 307 310 305 305 305 303 305 306 303 306 305 305 306 303 298 301 296 299 297 307 309 311 309 309 312 311 310 296 300 302 297 300 304 303 300 302 303 303 298 294 306 305 305 312 310 311 315 317 319 321 322 323 324 326 326 327 329 330 330
304 306 304 307 309 313 314 314 314 314 308 300 293 288 294 295 298 298 302 300 301 300 298 293 296 298 298 298 301 305 306 308 306 303 300 306 303 306 305 306 309 307 307 304 300 305 296 297 306 306 305 310 312 312 312 311 308 301 298 300 307 307 306 301 292 296 293 290 294 300 298 298 302 297 310 311 314 316 318 320 322 325 326 326 327 328 330 331
304 304 306 307 311 315 316 317 315 311 305 298 291 296 299 295 301 299 302 301 301 302 297 295 296 299 296 299 299 303 306 303 303 304 301 305 300 310 307 306 310 309 308 309 302 302 304 295 302 307 308 309 312 310 308 310 310 304 300 308 300 293 294 298 299 289 289 290 291 297 300 300 301 303 308 308 312 314 316 319 320 324 327 327 328 329 331 333
304 304 299 307 312 311 314 317 312 307 301 294 292 292 298 298 302 301 303 302 302 299 295 297 295 299 298 295 298 303 305 301 304 303 300 303 300 307 307 309 307 310 310 309 304 304 305 296 298 307 307 309 309 307 299 302 307 309 308 304 306 300 296 294 296 296 294 290 293 293 298 295 307 303 308 310 313 315 317 317 318 324 327 328 328 329 330 331
301 297 295 307 310 312 311 312 308 304 299 292 294 294 300 298 301 303 304 303 300 299 298 297 299 296 298 298 300 297 302 303 304 303 303 304 303 310 308 311 308 309 310 310 306 307 301 303 293 301 308 308 301 304 301 302 300 301 301 300 301 301 303 300 300 297 292 292 291 291 291 298 304 310 310 310 313 315 317 317 319 322 325 328 328 329 329 331
302 296 296 307 309 309 308 303 301 298 296 298 299 298 299 298 302 303 304 305 303 306 300 299 298 296 297 297 296 300 297 299 302 303 304 304 305 300 310 310 311 308 310 308 306 306 300 300 296 299 300 301 303 308 308 306 306 303 302 300 301 297 295 291 290 300 298 294 289 292 292 301 308 314 315 313 315 317 318 319 319 321 324 326 328 328 329 330
297 290 294 307 308 307 301 293 295 301 298 295 294 297 296 304 299 300 301 303 302 300 304 301 301 300 299 298 298 299 298 297 298 300 305 303 307 306 308 313 311 312 308 304 304 307 306 306 299 297 300 301 306 309 311 310 309 307 305 302 304 301 298 293 285 292 297 297 300 299 295 296 309 313 312 313 319 318 319 321 320 320 322 324 328 328 329 330
295 292 303 306 307 304 298 292 295 295 295 299 302 301 301 300 298 300 298 300 298 302 301 300 300 299 301 300 300 299 299 297 298 297 300 305 307 308 310 311 313 311 311 307 308 308 321 301 297 299 302 306 308 310 310 311 309 306 306 306 303 300 301 297 296 298 295 297 294 295 295 298 310 311 319 319 323 320 322 322 321 321 322 322 327 328 328 329
296 295 297 305 307 304 295 288 289 292 294 298 299 297 300 298 297 296 297 299 298 298 298 299 301 303 300 303 301 298 301 294 299 299 299 303 301 310 311 311 312 309 309 307 304 309 302 302 299 294 293 296 301 304 304 308 308 304 302 304 305 304 303 302 301 305 297 297 297 293 290 294 310 311 312 322 319 318 320 322 322 320 320 321 322 330 330 330
296 298 298 301 306 302 293 295 292 291 293 293 293 292 294 296 298 298 297 296 298 298 299 297 300 301 301 303 301 302 302 299 296 301 300 301 302 306 307 311 311 309 312 315 327 311 305 302 299 293 290 289 289 291 293 297 301 304 305 304 305 304 302 299 295 295 289 298 299 294 294 298 307 310 310 310 311 318 320 322 323 322 321 322 322 329 331 332
292 286 293 295 299 299 298 300 296 294 292 292 290 292 294 292 295 298 301 298 300 301 300 299 300 301 299 298 296 296 298 302 299 298 298 299 300 303 306 306 309 310 321 333 328 312 304 305 302 299 296 295 297 301 310 308 303 301 303 304 304 305 305 302 298 294 290 295 299 296 300 304 305 306 307 308 310 311 319 319 320 320 321 322 321 327 330 331
296 288 289 287 295 295 294 296 294 296 291 294 287 292 290 292 294 296 301 295 300 299 298 298 298 294 294 295 294 296 300 298 299 300 299 298 300 302 305 303 306 310 328 326 327 314 307 301 303 302 301 302 306 306 308 308 303 304 303 303 305 304 303 301 297 295 299 296 286 298 305 301 302 307 307 308 310 311 320 317 320 330 326 324 325 327 335 329
287 292 295 296 289 286 289 290 294 292 293 293 291 294 291 291 292 291 297 299 299 300 294 296 297 296 295 293 294 293 294 293 297 293 298 298 298 301 302 305 304 313 317 312 318 311 308 301 304 304 302 304 305 306 308 307 306 305 305 304 303 304 303 301 300 301 302 296 294 298 307 307 308 308 310 314 314 311 313 319 323 327 330 331 328 327 328 330
295 295 294 298 289 292 292 292 293 293 292 292 292 293 290 291 291 294 294 294 296 295 297 290 293 295 295 296 294 292 293 290 290 294 293 294 295 296 296 300 304 307 305 312 311 312 306 303 307 305 303 304 304 305 306 304 305 305 304 305 305 304 304 303 302 303 302 301 302 301 306 307 309 308 308 310 321 321 321 326 321 322 329 331 334 329 329 331
290 291 290 296 295 293 293 293 293 292 289 293 288 291 291 291 290 293 295 293 290 292 298 293 293 294 295 294 294 290 292 294 293 289 294 293 293 296 295 297 298 303 304 303 308 312 305 305 309 306 302 302 304 305 305 304 304 303 305 305 305 304 304 304 304 304 305 302 303 303 303 303 308 311 313 316 315 317 320 315 322 324 332 336 336 334 336 334
298 299 298 291 288 292 292 292 291 290 289 291 289 291 291 290 289 293 292 296 293 291 295 292 294 294 294 293 293 293 296 295 294 294 295 296 292 298 296 298 301 299 301 302 305 312 306 304 307 307 300 303 305 304 304 305 304 303 303 304 304 304 301 303 302 304 301 302 305 301 300 300 306 310 313 311 311 315 315 319 319 319 324 331 336 336 340 340
300 304 300 295 287 293 289 292 291 290 286 291 291 291 291 291 293 294 290 295 296 298 296 296 295 294 292 292 292 294 296 297 296 297 299 300 302 301 302 302 303 300 300 302 304 303 303 301 299 300 297 300 306 306 304 304 302 299 300 303 305 306 309 305 305 306 305 304 300 299 298 304 306 313 309 308 308 308 314 315 316 318 321 320 322 333 339 341
Wind_Speed
21 22 21 21 22 21 20 20 21 20 20 21 21 22 22 23 23 23 22 22 22 21 21 22 21 20 21 21 20 20 19 10 12 6 9 19 12 15 14 9 13 15 11 7 7 10 10 11 13 12 10 8 8 9 9 10 6 4 3 2 4 4 3 1 6 2 2 5 3 8 8 10 10 8 10 11 12 14 15 14 13 17 13 17 18 19 19 19
22 22 22 21 21 20 21 21 20 21 21 21 21 22 22 23 23 23 23 23 22 23 22 21 22 21 20 21 20 20 15 8 10 13 18 23 17 20 15 10 13 16 12 7 9 12 11 13 13 13 10 9 8 9 8 7 10 6 2 1 5 3 5 9 7 7 5 8 6 8 10 8 9 8 8 7 12 16 13 15 18 16 20 19 20 20 20 20
22 22 21 21 20 21 21 21 21 21 21 21 21 22 22 22 23 23 23 23 23 23 22 21 21 20 20 20 18 16 11 6 8 14 20 19 21 18 16 13 14 16 13 9 10 11 13 13 13 13 10 9 8 10 11 9 9 7 6 4 7 8 8 12 9 9 8 8 10 8 9 9 8 7 7 11 10 12 11 13 17 19 22 22 21 21 20 19
22 22 22 21 21 21 21 22 22 21 22 21 21 22 22 22 22 23 23 23 23 23 22 21 20 20 20 19 16 13 7 7 6 7 3 4 14 20 14 16 15 16 11 10 8 11 12 12 14 14 10 10 9 11 10 8 8 7 6 7 7 8 2 5 8 9 9 9 10 3 8 10 9 8 9 14 10 9 12 18 20 22 22 22 22 21 18 19
23 22 21 21 21 22 22 23 22 23 22 22 22 22 22 23 23 23 23 23 23 23 23 21 20 20 19 15 15 8 6 4 3 2 3 7 12 15 16 15 15 12 11 7 7 10 12 13 12 13 10 7 10 9 11 12 10 5 10 8 10 4 4 5 7 9 5 11 11 6 5 8 6 7 8 13 11 8 13 19 22 22 22 23 21 21 18 19
23 23 22 21 23 23 23 23 23 23 23 22 22 22 22 22 23 23 23 23 23 23 22 21 20 19 19 16 10 6 1 3 1 1 4 8 15 17 17 17 17 11 8 6 8 9 11 13 13 10 8 7 7 10 9 12 10 6 6 11 13 9 5 7 12 12 7 7 3 5 5 7 7 4 10 12 9 10 18 22 22 21 22 21 21 19 19 20
23 23 22 23 23 24 24 25 24 23 23 22 22 22 22 22 22 22 23 22 23 22 21 20 19 19 18 18 5 3 4 10 10 4 9 5 8 10 10 10 10 8 8 7 9 8 10 13 12 10 8 9 11 12 15 13 8 6 8 11 15 13 12 11 12 10 12 11 8 6 9 7 6 7 7 8 10 18 23 23 22 21 20 20 20 19 20 19
22 23 23 24 25 24 25 24 25 24 25 24 23 22 22 22 22 22 22 22 22 22 21 19 18 17 14 9 2 3 5 9 18 12 13 10 6 6 9 6 8 8 9 11 10 12 11 13 12 9 9 8 7 13 11 13 13 13 7 14 13 13 12 7 4 11 16 12 10 9 7 5 9 5 5 8 18 21 22 22 22 21 20 18 18 18 18 17
23 24 24 24 24 25 25 25 26 25 26 25 24 24 23 23 22 22 22 21 21 21 20 18 17 13 9 4 2 6 9 16 17 11 14 12 10 10 10 7 8 10 8 10 10 11 10 10 12 10 8 11 11 13 10 9 8 9 9 15 13 14 9 8 10 11 18 11 13 7 5 4 2 8 4 15 15 21 22 22 23 20 20 19 17 17 16 15
24 24 25 25 25 26 26 26 27 27 26 26 26 26 24 23 22 21 21 22 22 21 19 17 14 9 5 3 4 4 10 8 9 12 17 11 10 8 8 8 12 8 7 9 8 11 12 9 11 9 10 10 8 10 11 13 7 6 9 7 12 11 10 13 11 8 12 14 14 9 7 8 5 5 3 12 19 21 22 21 19 20 18 18 17 15 15 17
25 25 25 26 26 26 27 27 28 28 27 27 28 27 26 25 22 20 22 21 21 21 18 16 11 6 3 4 3 9 7 9 2 7 12 11 13 10 11 9 11 8 9 7 10 11 12 14 10 5 7 6 4 12 11 9 10 13 13 9 9 5 12 10 10 9 7 9 14 9 9 6 11 5 5 14 19 21 21 20 18 17 16 16 18 14 13 14
25 26 25 26 27 26 27 27 28 28 28 29 29 28 27 25 23 22 21 21 21 21 16 10 6 4 4 4 9 13 6 8 6 1 6 12 13 14 14 12 11 10 9 9 10 10 12 13 12 9 4 6 11 8 10 10 9 12 13 12 10 13 10 17 12 10 8 8 14 10 10 7 9 7 11 16 18 19 20 20 18 17 15 14 15 14 13 12
26 27 27 26 27 27 27 28 27 28 29 29 29 28 28 28 25 23 21 21 17 15 11 9 6 4 3 6 13 18 16 15 16 16 10 9 12 10 9 9 14 13 12 10 9 11 12 12 11 10 11 8 3 5 2 5 10 11 11 9 9 9 11 8 8 8 8 10 15 13 6 7 8 7 15 14 17 19 20 17 16 15 15 13 12 14 13 11
29 27 27 27 26 28 28 28 28 28 29 29 28 28 28 28 28 24 20 19 20 15 11 7 5 4 4 9 4 7 14 14 18 17 15 13 9 9 8 6 6 8 10 11 10 6 9 9 9 9 6 7 7 4 12 8 5 8 7 6 8 8 4 8 9 11 11 12 13 13 5 7 10 8 14 13 16 19 18 16 15 15 14 13 11 14 14 13
25 26 27 27 28 27 27 27 28 28 29 29 28 29 29 30 29 24 18 13 12 10 5 6 5 3 4 10 8 22 28 16 14 17 12 12 12 7 11 8 10 9 7 6 5 6 7 6 9 8 6 6 8 9 9 6 4 6 6 6 5 4 5 10 11 12 9 12 15 14 4 8 8 5 17 13 12 17 18 16 16 15 14 14 11 15 14 12
24 26 27 27 28 28 27 28 28 27 28 29 31 31 32 29 26 22 17 13 10 2 5 4 6 6 6 11 8 9 6 6 16 21 13 13 13 12 8 10 8 9 9 6 6 6 7 7 8 6 7 6 9 6 6 5 6 7 7 3 5 7 8 11 9 10 14 9 12 12 4 8 7 6 15 13 12 16 17 16 16 15 16 14 11 14 13 11
24 25 26 28 28 28 29 29 29 29 30 31 32 33 31 27 21 16 11 7 5 6 6 3 5 6 4 3 10 11 7 11 9 8 12 14 13 8 6 7 7 10 9 9 8 7 7 9 3 6 5 7 7 6 4 7 7 7 4 7 7 8 9 9 4 11 10 12 8 10 3 8 7 9 12 15 13 15 16 16 17 16 13 13 11 14 13 11
24 25 26 28 30 30 29 30 30 29 31 32 31 28 26 27 16 3 3 3 4 6 7 7 5 3 13 10 5 12 12 9 9 8 12 11 13 10 7 7 7 10 10 10 9 10 7 7 4 5 3 6 6 8 9 10 9 7 6 6 9 11 8 8 7 7 7 13 10 10 8 3 14 12 13 14 14 12 15 15 16 16 14 15 12 14 13 12
28 28 29 32 33 31 30 31 32 30 28 32 29 27 22 9 1 3 3 4 4 2 1 5 6 7 4 4 11 9 6 6 6 12 10 12 12 9 7 7 7 10 9 8 5 11 5 6 4 5 10 9 11 10 10 10 10 13 12 8 9 8 7 10 7 9 9 10 10 11 9 6 7 9 7 14 15 12 12 14 14 14 14 15 13 13 13 12
28 26 28 29 30 30 29 30 33 32 27 22 17 14 4 3 1 1 3 5 6 8 13 7 12 9 12 17 14 12 13 10 9 8 3 7 8 8 9 8 10 9 8 8 6 13 3 9 9 12 10 10 11 14 13 12 13 13 13 13 8 10 10 10 5 10 12 6 8 9 10 9 7 9 7 7 14 11 12 15 13 14 14 15 14 13 16 15
26 27 28 29 28 31 29 31 33 32 29 13 10 6 6 10 8 7 11 12 13 16 17 20 18 16 16 12 14 15 10 1 3 9 11 10 8 10 9 8 9 9 9 8 9 6 10 10 13 12 12 13 11 13 14 12 11 15 13 12 9 8 10 10 7 12 12 9 6 8 10 11 9 10 11 7 13 11 13 13 13 15 16 15 16 14 16 15
26 27 27 27 29 30 32 31 33 32 28 7 2 3 7 4 1 6 7 12 9 11 13 19 17 20 15 19 21 16 11 12 11 7 5 13 9 9 8 9 8 9 8 9 8 7 11 14 11 12 11 11 12 10 12 15 13 13 12 10 11 10 10 8 11 14 12 13 6 11 10 7 11 9 9 12 9 8 10 13 13 13 16 15 16 15 15 13
28 26 25 27 29 31 32 33 31 35 8 4 6 11 10 9 8 6 7 10 20 11 18 21 20 21 20 15 17 12 14 15 10 11 9 10 7 12 8 11 9 8 8 12 11 9 9 12 13 10 10 11 12 13 11 14 14 11 11 10 10 9 8 5 7 14 12 10 8 9 10 6 9 10 9 13 14 8 10 13 15 15 15 17 17 15 15 17
28 26 26 25 28 30 34 33 33 13 7 12 13 11 7 11 10 10 8 6 12 18 16 18 19 20 22 18 9 16 15 11 11 13 10 11 11 11 8 11 11 9 11 13 15 12 11 4 13 12 12 13 14 14 15 11 11 15 14 11 10 12 13 11 4 8 7 9 12 8 6 4 8 7 7 7 12 11 11 10 12 15 13 15 16 16 16 18
27 26 26 25 26 29 32 34 8 8 14 15 6 13 12 12 9 9 8 6 7 11 10 16 12 12 19 10 6 12 14 10 14 9 7 13 11 8 11 5 6 11 12 12 13 15 14 12 10 18 16 15 14 13 16 13 11 10 16 16 13 12 13 13 12 7 7 4 9 10 3 5 7 15 13 8 5 8 8 12 13 13 14 14 15 15 14 16
26 26 28 24 26 26 32 12 5 14 17 9 8 13 13 12 10 9 5 3 9 7 8 8 10 10 9 12 13 11 6 13 16 13 10 12 11 9 5 8 5 9 14 13 12 7 10 11 14 12 17 16 16 14 12 15 11 9 10 16 19 18 15 13 15 6 3 6 11 14 10 3 5 10 15 12 11 12 8 10 11 11 12 15 14 14 15 15
26 28 25 24 22 23 13 5 11 15 12 7 12 14 14 13 7 12 3 4 6 7 6 5 8 1 7 13 16 12 8 15 11 12 15 10 14 9 8 9 6 6 6 6 4 9 7 14 15 16 13 16 14 14 12 13 12 11 6 13 18 18 19 18 18 11 3 6 9 15 10 6 4 8 15 15 16 15 14 12 11 11 10 14 14 16 16 17
27 25 25 25 22 16 9 9 13 10 11 13 12 14 15 9 10 7 3 5 4 1 5 3 4 2 2 13 17 16 6 9 9 16 18 12 9 12 13 10 11 12 10 6 12 5 10 11 15 16 16 11 13 10 10 13 11 7 10 10 11 17 18 18 16 11 5 3 4 12 12 4 4 5 11 18 16 15 17 14 12 12 14 13 14 16 16 16
25 24 24 25 25 23 14 5 7 12 8 9 15 15 10 10 9 2 2 4 5 4 3 6 2 2 1 16 16 15 10 6 8 11 16 14 15 6 12 14 10 10 13 13 10 6 9 12 11 17 12 13 7 11 13 13 13 10 9 10 12 9 13 16 12 11 7 6 6 9 11 6 4 6 8 11 13 16 18 17 15 11 13 15 14 14 16 15
25 24 24 22 20 8 5 9 12 20 15 14 14 12 13 10 3 2 2 7 5 2 3 2 2 4 5 14 12 15 15 9 8 8 16 14 15 15 6 10 11 9 10 14 15 12 10 9 13 10 14 9 7 10 13 15 13 6 10 12 11 12 10 6 9 6 4 8 5 12 17 14 7 11 12 11 14 15 14 12 11 12 11 12 14 13 13 16
25 26 23 19 9 7 10 9 13 10 7 10 14 13 8 4 3 3 8 4 5 4 1 3 6 8 9 13 11 15 15 11 11 5 9 12 13 15 7 8 9 8 8 9 12 15 15 15 9 7 9 8 11 8 13 11 10 11 7 9 8 9 5 5 2 5 9 8 4 9 15 17 10 5 12 14 12 17 17 17 16 15 15 12 11 14 14 15
26 26 30 16 14 8 6 9 9 10 11 14 14 8 4 3 3 8 5 4 7 6 12 7 10 10 14 13 11 14 14 14 9 8 9 11 10 14 16 11 10 10 11 10 10 9 15 15 11 11 6 13 8 10 6 13 12 11 7 5 10 5 4 6 4 7 5 8 5 8 8 9 12 5 11 14 13 16 18 17 19 19 18 16 14 16 13 13
27 27 32 21 11 8 15 17 13 12 10 13 8 5 4 3 9 12 7 4 3 1 2 4 9 11 10 12 11 10 12 12 11 12 11 14 12 14 16 15 10 12 7 10 9 8 9 12 16 12 11 11 11 8 6 6 10 12 11 7 6 5 6 6 5 2 3 3 10 11 8 12 1 4 16 18 17 17 20 20 22 23 22 21 17 16 15 14
27 29 15 14 10 12 13 11 12 10 9 8 5 4 4 7 8 9 14 10 13 17 13 8 10 10 10 12 12 10 11 12 11 12 13 11 15 11 14 19 15 12 7 6 11 9 7 10 14 13 10 8 16 11 7 4 7 9 5 9 6 4 4 6 4 8 6 5 4 8 8 3 8 5 13 15 17 18 18 20 21 22 23 22 20 17 18 15
31 24 13 15 11 11 14 13 13 11 8 6 5 7 9 15 2 2 6 8 8 15 21 21 15 14 10 12 13 15 11 8 16 12 13 13 13 12 13 15 20 12 9 9 6 5 16 9 5 16 8 8 14 12 9 7 5 7 6 3 8 11 5 7 4 5 3 2 7 6 5 6 8 7 12 17 20 18 15 17 16 20 19 18 16 16 19 18
21 12 16 11 9 12 11 10 11 11 7 6 6 8 16 5 4 4 5 6 9 8 11 18 16 11 11 8 10 15 17 10 15 14 11 15 12 14 13 11 16 20 11 12 4 8 7 10 8 13 20 14 9 13 13 10 9 7 7 13 14 6 5 1 4 2 2 5 8 1 3 4 0 5 5 6 11 14 15 15 16 17 22 20 19 18 17 17
11 14 12 15 14 16 12 12 7 10 7 8 9 13 7 8 12 12 6 10 12 17 13 9 8 6 6 7 6 14 13 15 12 13 10 11 13 15 14 13 15 19 20 8 8 7 4 5 10 10 18 19 13 11 14 15 7 4 14 12 2 3 2 3 3 2 5 5 5 8 9 3 4 5 7 6 14 14 14 15 16 15 21 21 18 17 17 16
13 10 15 20 20 16 11 8 9 7 8 9 14 17 5 12 6 14 14 19 16 13 11 9 8 11 10 10 9 9 12 13 12 12 11 12 8 14 15 12 17 18 22 20 7 6 8 7 7 16 13 16 17 10 13 13 13 11 2 5 8 5 12 3 2 5 6 9 4 4 10 13 7 4 7 9 15 19 16 14 14 15 21 23 21 19 17 17
10 10 10 16 10 14 11 10 8 9 9 10 12 11 9 14 15 18 17 17 17 16 13 9 6 8 12 12 12 12 10 13 11 12 10 9 12 16 20 11 13 18 20 23 16 6 6 7 6 6 13 14 15 11 12 10 9 12 7 9 4 3 7 10 6 3 2 2 4 7 5 3 4 4 5 8 14 15 16 16 16 18 20 20 19 19 19 17
9 8 8 11 10 17 20 12 7 9 10 15 10 12 8 13 10 12 15 15 13 10 9 12 10 12 15 13 15 11 13 15 13 12 13 7 14 13 19 19 10 17 18 25 15 13 7 4 4 4 9 12 13 11 10 10 11 11 11 12 7 4 1 8 5 9 5 3 4 3 7 7 7 5 14 9 7 11 17 17 16 17 18 20 20 19 18 18
9 7 11 14 11 18 18 13 8 11 12 11 15 15 14 12 11 13 16 17 14 12 16 16 13 12 11 13 17 13 10 16 12 12 11 11 13 7 15 13 16 13 17 19 20 13 8 7 8 4 8 9 9 11 14 14 13 12 13 14 13 9 7 7 6 6 9 7 4 4 7 1 6 10 5 8 10 14 14 16 14 14 20 20 19 21 19 18
9 9 11 19 22 18 13 9 6 7 9 13 13 11 11 13 16 18 18 18 20 14 12 14 16 15 15 15 14 16 11 13 14 16 10 13 11 13 5 21 17 19 12 14 15 14 8 3 5 9 10 7 7 14 19 18 15 14 14 13 12 6 5 5 6 6 8 8 8 4 2 7 8 4 9 13 6 11 8 11 11 11 15 15 19 21 19 20
8 12 16 22 23 17 11 9 8 9 10 11 14 18 18 18 16 14 17 14 14 12 13 14 14 15 15 13 15 16 15 12 15 13 16 11 13 15 9 15 17 21 19 8 15 14 13 6 7 9 6 11 13 7 19 20 18 14 14 14 11 12 11 8 3 4 2 2 6 2 6 3 4 9 3 4 6 13 17 17 18 15 13 12 15 19 21 19
9 12 15 14 14 10 8 8 7 8 10 13 17 18 14 16 17 14 14 15 12 10 13 12 15 16 17 16 15 16 13 11 13 14 14 8 9 10 17 18 15 13 16 7 9 14 9 8 5 4 6 5 9 7 5 17 15 11 9 12 13 10 11 10 6 2 7 9 7 7 10 4 4 8 11 3 0 6 4 7 12 11 7 11 12 15 15 16
9 10 12 12 11 8 10 7 9 9 12 14 14 16 15 13 9 18 20 19 17 14 10 11 14 17 16 14 17 17 18 15 14 16 14 16 12 12 18 19 21 13 13 14 13 12 14 9 11 9 12 13 11 13 8 10 15 8 7 11 15 16 14 9 11 8 5 4 9 5 4 5 4 13 21 17 11 3 6 14 14 15 16 16 11 11 18 16
5 9 8 8 8 8 9 8 11 11 12 13 15 15 18 17 14 11 14 14 14 12 9 12 10 14 14 16 13 14 16 16 16 11 9 11 9 8 11 17 10 12 15 15 21 10 9 8 14 14 11 10 10 4 2 4 9 13 14 14 11 15 14 11 5 6 9 5 6 6 4 2 7 15 18 19 13 15 5 5 6 11 12 12 8 12 17 18
4 6 7 9 11 6 7 9 9 7 7 9 7 9 14 14 13 14 11 9 10 14 13 7 10 15 15 18 16 15 12 19 22 19 12 15 15 15 27 28 23 18 25 15 9 10 4 9 15 18 17 12 6 10 10 9 8 12 14 17 16 12 12 14 11 13 6 2 7 4 5 10 10 6 9 16 13 9 3 5 11 5 5 13 12 10 14 16
4 5 8 4 5 10 13 10 14 15 16 14 9 12 14 14 13 12 12 11 10 9 9 7 8 12 13 15 16 12 15 16 10 15 19 13 20 20 19 13 12 20 23 16 10 9 4 5 12 16 19 20 16 10 11 14 11 11 15 13 19 19 14 14 12 11 7 9 12 6 3 4 5 6 6 7 6 8 10 8 7 7 9 3 6 11 15 16
7 5 9 6 4 7 9 15 20 17 16 13 8 10 15 15 14 11 9 12 13 9 7 11 12 10 12 11 12 8 14 12 13 16 12 20 18 16 12 24 19 15 21 16 10 3 3 2 3 13 13 15 18 18 18 15 11 8 13 16 15 20 21 18 11 8 11 6 8 9 8 8 7 5 4 5 4 2 2 1 1 6 10 11 7 7 12 14
5 5 4 5 6 10 12 11 11 13 12 13 8 8 10 14 18 15 12 9 11 12 2 8 12 13 10 9 6 9 14 14 13 17 18 17 20 6 15 9 12 19 18 18 12 2 7 2 6 2 5 14 19 18 20 18 16 13 9 15 17 15 18 17 14 13 10 10 12 8 7 10 6 5 5 2 4 2 2 2 1 2 8 11 11 11 7 9
5 5 5 5 8 7 7 9 10 9 10 10 8 9 9 11 15 17 15 11 13 16 1 4 5 11 9 11 11 11 14 16 17 18 19 17 15 15 9 10 10 18 15 17 15 3 10 3 3 1 2 1 5 19 22 18 16 18 16 11 10 17 17 18 17 14 10 6 4 10 10 8 5 6 4 7 3 1 2 4 4 3 1 4 9 14 12 13
6 1 3 3 5 5 8 10 10 9 9 5 5 8 8 13 15 16 15 7 10 11 4 5 7 8 9 8 11 11 14 18 19 19 17 19 18 16 17 21 17 15 15 16 13 13 4 5 6 3 0 2 2 6 15 20 14 16 20 17 11 6 3 5 12 16 16 12 8 5 8 5 9 8 8 7 8 7 3 6 5 5 5 7 6 9 17 15
Wind_Direction
354 352 351 349 349 346 342 341 340 338 335 334 332 330 328 328 327 325 325 323 321 320 319 318 320 322 323 324 325 328 326 318 308 294 243 243 229 227 248 215 170 179 163 158 209 167 189 205 213 216 222 232 224 234 237 239 196 118 159 159 269 218 292 325 270 250 315 329 167 185 125 109 109 134 124 139 142 127 151 152 137 130 134 133 136 137 141 143
353 351 349 349 346 341 341 338 335 334 333 331 329 327 325 325 324 324 321 320 320 319 317 317 319 320 324 325 325 326 327 293 283 271 242 250 210 224 218 193 168 169 154 183 203 194 188 200 212 208 215 221 220 238 214 227 224 161 170 125 213 204 206 165 243 255 272 268 245 143 132 145 141 149 157 147 139 146 157 132 141 131 123 131 140 143 145 151
352 350 348 346 341 341 337 335 334 333 331 327 325 325 324 323 321 319 318 318 317 317 316 317 317 318 322 324 322 323 327 299 277 259 262 260 220 219 209 192 169 163 166 182 208 210 201 199 204 206 213 235 214 234 217 229 223 184 132 204 218 217 221 193 201 232 221 240 274 157 159 131 145 141 190 140 152 162 143 128 121 128 134 141 143 146 154 150
351 348 346 343 340 337 335 333 333 330 327 324 324 323 322 320 317 316 315 314 314 314 315 315 315 318 321 322 322 318 292 270 267 254 302 319 189 202 189 179 175 172 185 204 205 218 222 217 201 205 211 218 238 238 240 216 228 151 154 191 222 213 157 213 223 237 239 88 306 265 126 125 183 146 188 140 159 162 125 136 139 142 144 145 147 150 155 145
349 346 343 340 337 335 334 332 330 329 325 324 325 321 320 316 314 314 313 313 312 312 311 311 314 318 320 318 317 316 300 326 279 63 281 114 127 149 164 177 172 181 193 208 240 251 238 229 219 204 215 223 225 246 242 238 223 176 183 185 208 191 197 213 203 244 96 145 217 240 156 150 138 164 158 158 171 171 143 140 140 144 145 147 150 153 155 150
348 344 341 338 336 334 333 332 330 325 323 322 321 318 314 315 313 311 312 310 307 306 308 311 313 318 320 315 305 286 290 309 13 111 186 162 154 162 169 172 175 178 187 217 225 237 246 243 230 227 207 224 240 235 239 243 216 221 177 185 206 192 202 167 207 211 175 138 184 251 150 113 158 209 166 175 169 145 135 139 141 145 149 151 151 155 157 156
346 342 338 337 335 334 332 331 326 324 321 320 315 315 313 309 310 311 307 306 306 304 305 309 313 320 322 308 262 222 235 251 289 222 177 220 181 164 159 159 158 169 180 201 220 230 233 237 223 227 233 214 222 251 263 277 268 241 190 197 201 192 203 187 202 195 156 153 167 250 128 185 141 229 143 189 157 131 130 139 141 144 148 151 154 162 158 159
343 341 339 337 336 333 331 328 326 323 323 319 315 314 311 309 306 306 305 303 302 303 303 307 314 320 327 324 218 227 203 253 247 236 194 174 179 147 133 137 169 169 181 202 202 219 234 237 218 214 239 228 205 222 244 249 252 260 232 208 198 211 203 191 213 193 138 153 165 213 169 201 172 139 121 76 112 122 132 133 138 147 149 156 159 160 161 159
343 341 340 336 334 332 329 328 325 323 322 318 316 312 309 309 305 302 302 301 303 301 302 306 312 318 317 294 274 295 253 234 247 224 168 167 179 158 162 155 190 173 192 205 215 224 222 241 236 210 216 233 257 265 240 240 251 243 251 187 197 199 190 191 202 218 151 147 183 181 182 117 197 119 156 128 125 127 128 134 142 148 154 157 165 165 160 162
343 340 338 336 333 332 329 327 324 323 320 318 315 312 309 305 305 301 301 301 298 298 300 303 307 316 300 250 258 257 254 247 231 171 170 163 160 146 196 183 169 190 187 205 213 225 227 232 233 210 246 266 257 236 259 256 266 268 256 230 207 193 193 196 195 211 169 161 169 168 155 164 126 162 122 126 126 126 130 138 147 149 157 160 164 169 163 164
342 340 338 336 334 331 328 326 324 322 320 317 315 311 309 306 303 302 302 299 296 294 297 299 295 277 242 225 228 246 266 288 132 153 166 165 154 165 199 225 175 188 204 204 217 219 235 249 250 238 218 237 251 265 267 270 300 292 291 294 287 224 208 189 168 236 181 153 149 168 147 160 136 206 161 129 128 133 137 142 149 154 158 163 170 165 165 173
341 340 337 335 333 329 326 325 324 321 319 317 313 310 307 305 303 302 300 297 294 290 291 289 275 240 256 263 229 225 283 316 311 240 212 185 172 183 192 207 181 194 195 218 213 217 228 243 250 255 246 155 245 296 284 285 278 282 290 293 300 292 250 170 175 211 177 153 159 153 141 180 151 217 148 132 140 138 140 144 154 158 156 166 170 158 167 183
340 339 335 333 330 327 325 324 321 320 318 315 311 309 307 304 302 301 299 296 286 283 280 272 258 232 262 261 233 242 262 274 284 289 274 215 202 183 189 214 188 196 200 216 225 214 219 229 243 259 255 268 258 216 327 245 257 271 265 265 279 278 280 195 161 188 217 155 168 139 168 188 176 202 151 141 142 143 140 151 156 155 160 166 167 160 169 186
339 336 334 332 328 326 325 322 321 319 315 313 310 307 306 303 301 299 296 284 281 280 274 247 217 236 227 245 287 245 239 233 251 261 260 270 248 189 187 218 253 209 207 210 231 237 224 222 242 250 268 247 253 283 276 275 255 243 265 241 232 261 271 204 177 166 225 153 156 136 135 195 179 207 144 152 146 146 147 150 155 159 161 167 168 162 172 189
335 333 332 330 327 324 323 322 321 318 315 313 311 307 303 301 298 298 293 284 270 256 246 197 221 209 212 266 247 252 245 247 254 247 245 243 246 229 189 190 219 245 250 239 244 246 264 243 219 238 239 244 273 280 279 280 288 272 270 274 274 253 272 268 188 180 196 158 148 149 142 178 181 202 145 153 154 146 148 153 157 163 161 170 162 165 170 188
333 331 328 329 326 325 324 324 322 318 317 315 314 308 302 296 292 290 283 267 267 206 182 184 204 216 305 290 263 292 237 190 230 235 236 246 242 237 188 194 203 217 229 237 238 252 248 262 234 201 234 243 239 236 261 301 279 269 237 231 244 192 243 278 202 181 177 162 149 153 171 158 157 189 155 157 167 150 151 157 159 163 164 168 159 168 172 180
331 329 328 326 326 325 325 324 323 321 320 318 316 308 302 290 283 279 270 247 223 198 191 202 145 189 271 226 349 329 269 212 215 202 219 225 243 229 192 192 212 220 209 228 221 227 241 240 222 261 221 213 203 210 226 243 262 271 226 240 246 218 207 243 178 160 179 146 164 159 180 162 153 190 165 157 170 156 159 159 162 163 166 166 160 169 170 178
330 329 327 325 326 326 325 323 322 321 321 319 316 305 299 292 290 302 157 162 209 190 225 262 283 237 260 246 270 240 235 248 187 213 199 203 217 235 221 200 205 221 209 209 223 227 204 238 200 229 227 225 202 199 199 215 217 235 245 233 238 256 245 223 210 167 191 151 156 156 184 186 160 185 169 164 170 168 166 160 164 165 164 166 163 171 171 177
333 333 330 330 327 326 324 323 322 322 323 318 310 302 279 278 23 188 147 153 158 135 218 186 182 157 236 146 217 259 259 233 214 190 204 198 181 219 213 224 228 201 207 203 185 214 178 242 212 223 226 205 212 214 209 219 217 232 244 233 221 239 234 248 177 163 181 158 159 159 175 146 159 172 160 172 168 177 167 162 162 166 161 168 167 170 172 180
333 331 332 329 325 324 325 322 321 320 327 327 337 335 329 327 351 87 206 193 234 253 282 285 203 238 281 291 290 271 275 212 226 172 232 166 155 197 223 208 222 217 204 195 195 196 183 206 216 215 218 218 208 215 226 217 231 246 240 247 229 213 242 243 215 163 165 160 177 158 175 149 175 166 175 190 167 175 164 166 166 165 164 171 171 170 175 178
332 334 331 329 326 323 323 324 319 318 323 316 301 307 358 345 356 333 323 277 250 248 248 260 249 240 248 278 274 280 313 43 258 166 214 147 194 163 204 216 219 211 203 195 212 168 208 224 221 222 214 225 225 210 220 238 230 239 251 258 262 238 230 225 214 159 165 170 184 172 171 169 184 170 179 184 168 180 171 168 171 166 166 171 175 172 177 179
334 334 331 329 328 325 323 324 319 315 320 282 276 295 298 342 61 310 331 300 271 245 263 256 257 259 245 245 259 270 288 275 272 234 184 156 182 187 154 207 212 219 174 216 215 209 201 221 224 219 221 220 240 230 210 226 238 239 244 255 265 260 274 260 215 163 166 169 187 173 175 182 165 165 163 173 180 183 180 172 173 170 165 173 177 176 171 175
333 333 331 329 328 326 324 321 319 315 308 306 304 311 302 347 349 348 332 283 283 246 233 238 243 247 248 239 245 249 248 253 246 227 198 169 180 197 161 187 211 217 199 198 215 217 223 216 221 220 220 223 223 238 230 213 226 239 239 246 245 264 258 273 214 167 168 167 161 158 181 189 163 168 167 164 184 190 189 176 174 174 170 174 177 176 169 176
331 330 329 330 329 328 323 320 313 301 335 315 286 270 312 355 338 355 331 289 293 286 215 231 215 225 233 213 213 223 228 238 238 241 191 173 210 170 225 186 200 209 218 203 212 227 231 200 193 226 227 220 226 218 232 228 219 223 238 238 247 245 251 255 270 194 153 184 157 148 171 188 152 167 176 181 173 178 180 187 180 179 179 173 174 176 169 174
329 328 329 329 332 329 324 317 323 360 323 318 313 355 353 340 343 5 322 290 234 263 182 237 213 222 226 204 191 198 218 240 236 233 210 184 193 178 206 213 209 209 217 218 213 222 237 234 198 201 219 223 223 225 216 225 230 228 220 237 248 250 254 258 256 205 182 182 167 151 165 237 177 163 177 186 173 184 186 198 188 183 177 171 174 177 174 172
327 327 329 329 331 337 319 311 37 347 326 285 6 346 343 327 344 339 315 285 284 277 161 227 147 245 161 192 184 205 196 232 220 226 233 189 192 208 164 223 199 216 203 222 226 224 223 219 241 215 205 214 221 227 220 211 235 227 216 215 236 253 262 263 263 234 210 196 188 170 170 248 188 168 178 181 185 193 205 206 190 175 175 174 176 176 176 174
326 327 326 328 332 342 354 329 331 324 329 327 346 335 328 319 333 326 321 233 277 212 195 130 167 327 176 171 172 159 197 231 191 212 228 196 193 180 227 198 192 238 218 198 221 229 203 210 220 239 221 209 214 221 220 213 218 233 226 207 214 235 250 257 264 258 244 203 176 184 161 149 217 195 182 180 183 192 204 208 190 177 177 180 177 178 180 181
323 323 324 325 327 339 268 285 310 306 265 273 313 318 306 314 319 289 149 339 275 184 132 178 242 58 269 149 169 182 209 99 171 201 210 202 207 170 215 207 205 205 218 211 226 190 222 212 214 224 232 223 211 207 209 221 222 225 226 244 215 213 233 247 257 262 255 197 235 190 155 156 192 244 177 172 187 190 200 201 197 188 187 186 180 178 180 183
320 321 321 323 324 311 285 216 276 274 258 309 310 301 314 315 300 322 279 252 296 309 359 169 339 194 191 156 178 201 232 200 198 172 192 205 206 205 192 219 224 213 210 227 242 220 211 236 209 218 228 229 219 197 209 210 227 230 235 234 251 239 227 230 241 247 250 227 225 197 156 175 223 200 193 178 174 189 197 194 188 182 189 182 184 178 179 182
318 318 318 323 324 314 314 292 251 257 277 288 290 311 312 305 277 212 201 260 218 247 176 66 232 185 190 164 189 193 214 230 249 146 178 195 193 215 218 192 229 242 231 214 234 243 255 208 232 222 218 230 218 205 200 211 224 224 220 243 245 252 251 236 235 225 269 248 222 202 182 177 207 196 187 180 195 185 184 188 191 188 186 188 179 183 177 183
317 316 313 320 303 303 311 286 266 254 281 321 316 310 305 277 232 199 228 227 320 253 127 144 189 163 185 187 187 194 210 221 224 208 181 190 188 195 202 185 207 243 246 252 222 222 237 256 241 226 229 209 224 223 194 209 219 215 213 212 247 264 287 288 276 216 226 247 219 197 199 185 208 228 195 193 183 176 176 186 189 193 193 192 192 189 185 183
317 315 310 312 271 269 241 252 279 326 323 311 316 306 301 253 222 215 224 132 245 191 202 194 204 183 190 198 206 179 196 208 230 214 192 186 191 187 199 210 170 199 228 218 235 217 225 229 241 258 225 233 208 228 213 198 208 221 219 208 198 223 216 259 241 238 229 227 230 208 214 221 220 197 189 186 176 182 181 182 187 191 195 195 192 190 189 185
316 314 309 294 264 233 230 238 272 279 302 296 291 302 249 210 238 207 259 261 232 343 75 252 196 195 192 202 213 199 191 213 203 234 201 183 208 201 199 211 180 195 199 207 232 222 237 224 229 235 250 210 229 195 200 220 202 206 213 197 175 193 205 231 246 250 249 254 221 233 210 241 214 246 182 188 192 181 179 183 184 187 191 193 194 192 192 186
315 313 308 277 257 247 256 247 248 252 271 293 287 266 241 232 245 139 216 224 273 309 315 303 330 303 220 205 206 203 196 208 197 218 215 183 198 202 198 204 214 188 227 187 214 209 234 216 218 215 220 187 207 216 184 212 173 206 202 203 192 179 192 214 211 216 217 216 262 221 230 185 193 215 187 192 189 190 186 182 184 185 184 187 189 189 192 193
316 305 282 282 277 250 234 231 239 237 245 274 257 232 215 230 312 222 216 210 230 277 283 288 295 290 273 231 199 206 218 189 206 211 220 205 193 210 190 195 203 225 183 233 198 210 226 242 209 209 241 188 200 195 216 213 219 204 219 199 216 219 167 215 187 219 243 246 249 239 229 161 205 208 190 189 188 192 185 186 180 184 186 183 184 188 190 195
315 315 310 275 276 265 242 236 214 209 218 236 234 224 227 194 210 200 281 307 271 262 311 304 280 260 269 264 200 212 191 244 181 215 219 213 202 203 202 188 198 202 205 206 170 217 202 227 213 194 213 231 198 175 205 207 213 187 199 218 219 169 196 193 287 269 255 247 243 258 264 261 273 230 229 180 181 187 184 182 184 176 184 179 187 190 187 187
319 317 316 300 287 264 261 257 242 185 212 229 231 242 250 264 262 293 298 294 311 328 315 302 292 290 242 250 249 200 194 200 209 195 220 196 213 211 199 206 188 197 219 197 215 237 184 219 204 222 200 216 225 188 202 207 210 139 206 219 221 238 290 167 189 212 249 210 240 223 247 277 175 254 229 207 168 183 182 182 179 163 171 183 188 189 185 183
313 297 283 276 265 274 251 236 229 200 207 223 238 247 302 273 250 258 285 293 295 321 333 309 300 299 281 269 250 239 184 201 191 208 222 192 242 184 209 210 192 199 202 216 240 196 227 273 213 213 211 200 213 205 208 218 199 222 216 117 199 167 233 207 236 218 211 236 252 235 231 238 214 240 211 211 185 182 182 177 170 167 162 173 176 180 182 180
289 288 298 274 297 349 328 184 222 196 205 236 241 269 246 259 280 288 292 296 296 297 291 280 282 290 306 302 308 282 238 208 194 211 214 191 230 174 205 197 201 201 192 204 219 241 192 228 261 239 215 179 198 196 212 192 194 221 250 268 216 214 186 213 203 244 135 252 209 247 256 238 227 224 219 195 181 175 178 178 176 171 170 166 171 176 180 184
319 324 280 275 329 358 343 310 224 212 221 235 244 246 284 283 276 266 262 266 278 277 265 285 273 279 285 288 284 283 294 273 203 216 219 161 219 171 202 189 214 194 197 193 213 207 243 209 252 251 238 171 201 190 196 171 181 188 214 234 233 234 139 184 165 206 180 205 208 193 228 239 251 227 230 214 210 197 175 180 178 171 173 170 170 177 182 186
327 293 279 284 339 355 333 336 262 227 234 248 251 260 266 271 279 275 281 277 277 265 271 273 276 270 288 304 296 306 311 304 283 220 212 213 199 204 192 198 193 214 192 195 203 193 220 203 233 276 262 229 205 178 183 179 184 191 196 219 221 206 238 214 244 187 202 203 202 187 237 267 250 239 234 244 194 198 198 179 180 171 174 175 177 180 181 185
306 292 273 306 319 335 331 310 285 249 247 246 251 252 258 253 254 260 267 275 276 277 289 284 279 274 269 263 273 285 279 282 287 292 210 220 201 222 176 197 184 203 206 200 200 188 206 177 212 233 249 244 226 180 184 182 186 193 187 218 220 214 205 207 214 238 194 218 228 204 235 252 254 230 221 248 191 197 181 157 172 166 172 177 179 184 184 184
294 278 292 295 296 306 298 281 271 269 253 252 260 253 256 260 262 274 287 285 280 272 271 268 267 278 270 274 275 272 272 276 280 277 298 272 230 204 215 204 190 191 209 213 193 191 185 209 196 241 288 271 271 224 184 184 184 193 197 200 208 214 213 224 202 187 189 202 226 228 228 224 222 267 235 291 215 191 172 170 174 174 173 169 177 186 183 186
297 301 298 285 283 278 278 262 266 254 255 255 257 273 281 291 295 294 272 267 265 267 265 271 279 261 275 274 276 275 278 280 273 274 272 301 309 303 212 219 209 204 191 186 216 159 202 194 186 154 231 280 279 291 231 185 186 197 190 188 209 218 213 224 250 171 210 208 204 181 235 246 213 282 278 343 117 157 151 167 161 173 172 178 176 178 185 189
299 277 257 280 295 262 247 244 260 274 276 274 277 270 268 256 255 257 259 270 273 269 298 290 300 301 276 279 277 276 266 256 288 281 289 291 288 294 304 224 213 237 204 181 209 156 205 167 183 198 194 203 216 215 207 191 194 177 193 189 192 213 213 203 223 226 219 263 218 192 228 223 242 197 250 255 268 325 202 182 181 175 182 190 183 157 179 181
303 302 305 309 298 313 295 281 265 271 268 277 276 270 264 265 266 285 340 312 310 301 318 315 317 4 356 354 353 335 321 303 265 273 280 292 290 295 299 313 285 254 237 209 195 169 197 176 186 199 202 204 223 246 208 211 168 197 187 198 202 200 212 213 202 218 214 213 215 239 186 226 214 192 212 249 244 246 205 183 200 187 192 190 186 166 178 184
285 279 304 317 321 305 305 332 329 14 339 336 321 333 315 319 314 308 310 310 312 323 320 331 2 20 352 360 350 317 336 343 338 294 284 304 319 329 333 326 306 288 284 257 193 194 181 200 190 196 204 208 191 217 236 232 207 190 184 192 205 218 206 211 204 225 205 145 267 253 221 211 239 250 227 225 230 221 229 218 168 164 187 190 186 170 182 182
275 267 291 323 284 299 312 322 332 318 315 308 303 302 290 299 305 296 313 294 312 332 339 314 356 3 2 354 333 328 344 349 353 356 339 356 336 347 327 314 325 307 295 261 172 183 140 194 197 190 205 211 217 236 234 238 235 198 192 190 194 207 226 220 217 220 175 205 229 233 210 202 252 209 206 229 226 215 212 208 166 152 142 147 165 164 171 175
269 289 281 330 319 299 304 302 306 306 307 304 299 306 303 295 288 285 288 304 298 290 288 294 307 348 353 353 354 330 345 345 337 334 355 324 324 333 315 328 325 355 342 276 186 181 113 173 208 199 194 204 222 227 240 249 260 235 197 200 199 195 208 226 238 222 209 216 218 212 200 223 233 253 231 218 185 148 91 31 302 125 141 143 139 151 168 172
276 291 312 317 277 290 294 295 300 310 304 312 303 294 299 311 305 299 280 271 285 295 13 280 307 317 332 337 343 322 312 317 328 325 329 330 314 358 309 257 296 329 332 319 286 173 169 209 186 247 224 202 201 218 241 240 248 253 233 204 203 199 199 205 227 242 238 232 222 211 211 234 234 241 270 236 160 137 94 214 38 7 137 145 139 143 144 155
264 300 305 294 289 288 299 300 300 297 298 296 294 322 333 333 320 315 304 332 314 297 60 292 333 339 3 343 334 314 313 316 314 305 307 310 297 308 303 281 331 302 310 309 307 312 167 188 150 194 203 314 227 205 216 236 244 253 257 257 219 197 197 194 206 211 230 218 208 217 226 236 265 242 239 287 267 143 225 170 163 196 172 157 154 154 152 156
278 190 103 259 280 297 302 292 283 303 270 288 310 310 317 320 311 311 309 303 308 321 127 12 21 357 318 321 310 309 311 306 299 299 299 296 278 268 261 268 276 269 292 287 288 293 207 138 140 126 289 265 263 279 214 209 234 250 244 242 248 269 272 213 204 192 203 225 236 220 223 212 211 193 199 212 266 271 196 170 191 204 216 173 195 181 162 166